Regional Weather Roundup
Issued by NWS

Home | Current Version | Previous Version | Text Only | Print | Product List | Glossary Off
Versions: 1 2 3 4 5 6 7 8 9 10 11 12 13 14 15 16 17 18 19 20 21 22 23 24 25 26 27 28 29 30 31 32 33 34 35 36 37 38 39 40 41 42 43 44 45 46 47 48 49 50

000
ASUS45 KABQ 121610
RWRNM
WEATHER ROUNDUP FOR NEW MEXICO
NATIONAL WEATHER SERVICE ALBUQUERQUE NM
1000 AM MDT SAT JUL 12 2014

NOTE: "FAIR" MEANS FEW OR NO CLOUDS BELOW 12,000 FEET AGL WITH NO
       SIGNIFICANT WEATHER OR OBSTRUCTIONS TO VISION.

      THIS PRODUCT IS RELEASED AS TWO VERSIONS.  ONE VERSION NEAR
      THE TOP OF THE HOUR CONTAINING PRELIMINARY DATA FROM ALBUQUERQUE
      AND OTHER STATIONS.  A FINAL VERSION WITH ADDITIONAL DATA IS
      ISSUED ABOUT 10 MINUTES AFTER THE HOUR.

NMZ501-503-504-510>518-121700-
NORTHWEST PLATEAU/NORTHCENTRAL MOUNTAINS

CITY           SKY/WX    TMP DP  RH WIND       PRES   REMARKS
FARMINGTON     MOSUNNY   73  55  53 CALM      30.26S
LOS ALAMOS     SUNNY     68  54  60 NE5       30.38F
SANTA FE       SUNNY     75  51  43 NE9       30.31F
TAOS             N/A    N/A N/A N/A MISG        N/A
ANGEL FIRE     FAIR      59  53  78 CALM      30.47F

$$
NMZ402-403-502-505>509-121700-
WESTCENTRAL MOUNTAINS/SOUTHWEST MOUNTAINS

CITY           SKY/WX    TMP DP  RH WIND       PRES   REMARKS
GALLUP         MOSUNNY   74  55  51 NE5       30.33S
GRANTS         SUNNY     73  51  44 SE7       30.35S
SILVER CITY    MOSUNNY   75  55  50 S12       30.26S

$$
NMZ407-409-411-412-121700-
SOUTHERN DESERTS

CITY           SKY/WX    TMP DP  RH WIND       PRES   REMARKS
LORDSBURG      FAIR      77  59  53 CALM      30.16S
DEMING         CLOUDY    78  61  55 E10       30.17R
LAS CRUCES     SUNNY     81  58  46 E9        30.20R
ALAMOGORDO     MOSUNNY   79  57  47 CALM      30.19S
T OR C         SUNNY     77  56  48 CALM      30.22R

$$
NMZ519>523-121700-
CENTRAL VALLEYS/CENTRAL HIGHLANDS

CITY           SKY/WX    TMP DP  RH WIND       PRES   REMARKS
ALBUQUERQUE    MOSUNNY   73  57  57 CALM      30.27R
DOUBLE EAGLE   MOSUNNY   73  55  53 N7        30.30S
MORIARTY ARPT  FAIR      71  55  57 S5        30.33F
CLINES CORNERS SUNNY     73  51  46 S8        30.36R
BELEN          FAIR      72  59  62 CALM      30.26S
SOCORRO        FAIR      79  54  41 N8        30.23S

$$
NMZ524>526-539-540-121700-
SOUTHCENTRAL MOUNTAINS

CITY           SKY/WX    TMP DP  RH WIND       PRES   REMARKS
RUIDOSO        SUNNY     70  50  49 MISG      30.37S

$$
NMZ527>531-121700-
NORTHEAST HIGHLANDS/NORTHEAST PLAINS

CITY           SKY/WX    TMP DP  RH WIND       PRES   REMARKS
LAS VEGAS      SUNNY     72  51  47 SW10      30.35F
RATON          SUNNY     76  51  41 VRB3      30.29F
CLAYTON        SUNNY     80  55  42 SW10      30.23F

$$
NMZ532>537-121700-
EASTCENTRAL PLAINS

CITY           SKY/WX    TMP DP  RH WIND       PRES   REMARKS
TUCUMCARI      MOSUNNY   78  61  55 SW10      30.20F
CANNON AFB     NOT AVBL
CLOVIS AIRPORT NOT AVBL

$$
NMZ028-029-538-121700-
SOUTHEAST PLAINS

CITY           SKY/WX    TMP DP  RH WIND       PRES   REMARKS
ROSWELL        CLOUDY    74  63  68 VRB7      30.19S
ARTESIA        CLOUDY    73  63  68 SE7       30.20R
CARLSBAD       MOSUNNY   78  61  55 VRB5      30.16F
HOBBS          PTSUNNY   77  63  61 SE15      30.21S


$$


USA.gov is the U.S. government's official web portal to all federal, state and local government web resources and services.